Aiken, SC

1:49 AM EDT on August 31, 2016 (GMT -0400)
Aiken Municipal

Weather History for KAIK - January, 2013

Change the Weather History Date:

Tuesday, January 1, 2013

  Actual Average Record
Temperature  
Mean Temperature 52 °F -  
Max Temperature 59 °F 60 °F 69 °F (2011)
Min Temperature 44 °F 36 °F 30 °F (2015)
Degree Days  
Heating Degree Days 14    
Growing Degree Days 2 (Base 50)    
Moisture  
Dew Point 48 °F    
Average Humidity 86    
Maximum Humidity 100    
Minimum Humidity 76    
Precipitation  
Precipitation 0.00 in - - ()
Sea Level Pressure  
Sea Level Pressure 30.08 in    
Wind  
Wind Speed 4 mph (SSW)    
Max Wind Speed 8 mph    
Max Gust Speed -    
Averages and records for this station are not official NWS values.
T = Trace of Precipitation, MM = Missing Value Source: NWS Daily Summary

Daily Weather History Graph

Daily Weather History Graph

Search for Another Location

Airport or City:

Trip Planner

Search our weather history database for the weather conditions in past years. The results will help you decide how hot, cold, wet, or windy it might be!

Date:

Astronomy

Jan. 01, 2013 Rise Set
Actual Time 7:31 AM EST 5:29 PM EST
Civil Twilight 7:03 AM EST 5:57 PM EST
Nautical Twilight 6:32 AM EST 6:28 PM EST
Astronomical Twilight 6:02 AM EST 6:58 PM EST
Moon 9:45 PM EST (1/1) 9:55 AM EST (1/1)
Length of Visible Light 10h 53m
Length of Day
9h 58m
Waning Gibbous, 83% of the Moon is Illuminated
Jan 1
Waning Gibbous
Jan 4
Last Quarter
Jan 11
New
Jan 18
First Quarter
Jan 26
Full

Hourly Weather History & Observations

Time (EST) Temp. Windchill Dew Point Humidity Pressure Visibility Wind Dir Wind Speed Gust Speed Precip Events Conditions
12:15 AM 51.8 °F - 44.6 °F 76% 30.19 in - SW 5.8 mph - N/A   Overcast
12:35 AM 51.8 °F - 44.6 °F 76% 30.18 in - SW 8.1 mph - N/A   Overcast
12:55 AM 51.8 °F - 44.6 °F 76% 30.18 in - SW 8.1 mph - N/A   Overcast
1:15 AM 51.8 °F - 44.6 °F 76% 30.16 in - SSW 6.9 mph - N/A   Overcast
1:35 AM 50.0 °F - 44.6 °F 82% 30.16 in - SW 8.1 mph - N/A   Mostly Cloudy
1:55 AM 50.0 °F - 44.6 °F 82% 30.15 in - SW 6.9 mph - N/A   Mostly Cloudy
2:15 AM 50.0 °F - 44.6 °F 82% 30.16 in - SSW 6.9 mph - N/A   Scattered Clouds
2:35 AM 50.0 °F - 44.6 °F 82% 30.15 in - South 6.9 mph - N/A   Mostly Cloudy
2:55 AM 46.4 °F 44.3 °F 42.8 °F 87% 30.14 in - South 4.6 mph - N/A   Unknown
3:15 AM 44.6 °F 42.2 °F 42.8 °F 93% 30.14 in - South 4.6 mph - N/A   Unknown
3:35 AM 46.4 °F 44.3 °F 42.8 °F 87% 30.14 in - SSW 4.6 mph - N/A   Unknown
3:55 AM 44.6 °F 43.1 °F 42.8 °F 93% 30.14 in - South 3.5 mph - N/A   Unknown
4:15 AM 44.6 °F 42.2 °F 42.8 °F 93% 30.14 in - South 4.6 mph - N/A   Unknown
4:35 AM 46.4 °F 43.5 °F 42.8 °F 87% 30.12 in - South 5.8 mph - N/A   Unknown
4:55 AM 46.4 °F 44.3 °F 42.8 °F 87% 30.12 in - SSW 4.6 mph - N/A   Unknown
5:15 AM 46.4 °F 44.3 °F 44.6 °F 93% 30.12 in - SSW 4.6 mph - N/A   Unknown
5:35 AM 46.4 °F 44.3 °F 44.6 °F 93% 30.12 in - SSW 4.6 mph - N/A   Unknown
5:55 AM 46.4 °F 45.2 °F 44.6 °F 93% 30.12 in - SW 3.5 mph - N/A   Unknown
6:15 AM 46.4 °F 45.2 °F 44.6 °F 93% 30.12 in - SW 3.5 mph - N/A   Unknown
6:35 AM 46.4 °F - 44.6 °F 93% 30.13 in - Calm Calm - N/A   Unknown
6:55 AM 46.4 °F - 44.6 °F 93% 30.13 in - Calm Calm - N/A   Unknown
7:15 AM 44.6 °F 42.2 °F 44.6 °F 100% 30.13 in - SW 4.6 mph - N/A   Mostly Cloudy
7:35 AM 46.4 °F - 46.4 °F 100% 30.13 in - Calm Calm - N/A   Overcast
7:55 AM 46.4 °F - 46.4 °F 100% 30.14 in - Calm Calm - N/A   Overcast
8:15 AM 46.4 °F 45.2 °F 46.4 °F 100% 30.14 in - South 3.5 mph - N/A   Overcast
8:35 AM 46.4 °F - 46.4 °F 100% 30.14 in - Calm Calm - N/A   Overcast
8:55 AM 48.2 °F - 48.2 °F 100% 30.15 in - SSW 3.5 mph - N/A   Overcast
9:15 AM 50.0 °F - 46.4 °F 87% 30.15 in - Calm Calm - N/A   Overcast
9:35 AM 50.0 °F - 46.4 °F 87% 30.15 in - Calm Calm - N/A   Overcast
9:55 AM 50.0 °F - 46.4 °F 87% 30.15 in - Calm Calm - N/A   Overcast
10:15 AM 51.8 °F - 48.2 °F 88% 30.15 in - SSW 3.5 mph - N/A   Overcast
10:35 AM 53.6 °F - 48.2 °F 82% 30.14 in - SSW 3.5 mph - N/A   Overcast
10:55 AM 53.6 °F - 48.2 °F 82% 30.15 in - WSW 5.8 mph - N/A   Overcast
11:15 AM 53.6 °F - 50.0 °F 88% 30.14 in - WSW 4.6 mph - N/A   Overcast
11:35 AM 53.6 °F - 50.0 °F 88% 30.14 in - WSW 5.8 mph - N/A   Overcast
11:55 AM 55.4 °F - 50.0 °F 82% 30.13 in - WSW 5.8 mph - N/A   Overcast
12:15 PM 55.4 °F - 50.0 °F 82% 30.13 in - West 4.6 mph - N/A   Overcast
12:35 PM 55.4 °F - 50.0 °F 82% 30.10 in - SW 3.5 mph - N/A   Overcast
12:55 PM 55.4 °F - 50.0 °F 82% 30.08 in - South 6.9 mph - N/A   Overcast
1:15 PM 57.2 °F - 50.0 °F 77% 30.07 in - SW 5.8 mph - N/A   Overcast
1:35 PM 59.0 °F - 51.8 °F 77% 30.06 in - WSW 6.9 mph - N/A   Overcast
1:55 PM 59.0 °F - 51.8 °F 77% 30.05 in - Calm Calm - N/A   Overcast
2:15 PM 59.0 °F - 51.8 °F 77% 30.05 in - WNW 3.5 mph - N/A   Overcast
2:35 PM 59.0 °F - 51.8 °F 77% 30.04 in - Calm Calm - N/A   Overcast
2:55 PM 59.0 °F - 51.8 °F 77% 30.03 in - Calm Calm - N/A   Overcast
3:15 PM 59.0 °F - 51.8 °F 77% 30.02 in - Calm Calm - N/A   Overcast
3:35 PM 59.0 °F - 51.8 °F 77% 30.03 in - Calm Calm - N/A   Overcast
3:55 PM 59.0 °F - 51.8 °F 77% 30.03 in - Calm Calm - N/A   Overcast
4:15 PM 59.0 °F - 51.8 °F 77% 30.02 in - Calm Calm - N/A   Overcast
4:35 PM 59.0 °F - 51.8 °F 77% 30.03 in - North 3.5 mph - N/A   Overcast
4:55 PM 57.2 °F - 51.8 °F 82% 30.03 in - North 3.5 mph - N/A   Overcast
5:15 PM 57.2 °F - 51.8 °F 82% 30.03 in - NNW 4.6 mph - N/A   Overcast
5:35 PM 55.4 °F - 51.8 °F 88% 30.03 in - North 6.9 mph - N/A   Overcast
5:55 PM 53.6 °F - 53.6 °F 100% 30.04 in - North 3.5 mph - N/A   Unknown
6:15 PM 53.6 °F - 53.6 °F 100% 30.03 in - NNE 3.5 mph - N/A   Unknown
6:35 PM 53.6 °F - - N/A% 30.02 in - NE 4.6 mph - N/A   Unknown
6:55 PM 53.6 °F - - N/A% 30.03 in - ENE 4.6 mph - N/A   Overcast
7:15 PM 53.6 °F - - N/A% 30.02 in - Calm Calm - N/A   Overcast
7:35 PM 53.6 °F - - N/A% 30.01 in - ENE 3.5 mph - N/A   Overcast
7:55 PM 53.6 °F - - N/A% 30.01 in - ENE 3.5 mph - N/A   Overcast
8:15 PM 53.6 °F - - N/A% 30.01 in - NE 3.5 mph - N/A   Overcast
8:35 PM 53.6 °F - - N/A% 30.00 in - East 4.6 mph - N/A   Overcast
8:55 PM 53.6 °F - - N/A% 29.99 in - East 4.6 mph - N/A   Overcast
9:15 PM 51.8 °F - - N/A% 29.99 in - Calm Calm - N/A   Overcast
9:35 PM 51.8 °F - - N/A% 29.99 in - ENE 4.6 mph - N/A   Overcast
9:55 PM 51.8 °F - - N/A% 30.00 in - North 4.6 mph - N/A   Overcast
10:15 PM 51.8 °F - - N/A% 29.99 in - ENE 3.5 mph - N/A   Overcast
10:35 PM 51.8 °F - - N/A% 29.98 in - Calm Calm - N/A   Overcast
10:55 PM 53.6 °F - - N/A% 29.98 in - ENE 5.8 mph - N/A   Unknown
11:15 PM 53.6 °F - - N/A% 29.97 in - East 3.5 mph - N/A   Unknown
11:55 PM 53.6 °F - - N/A% 29.97 in - NW 3.5 mph - N/A   Unknown